sat.trackr.live / text

‹ back to catalog

STARLINK-34056

NORAD 63841 · 2025-093F

PAYLOAD ACTIVE UNKNOWN

§ Identity

Operator
Country
US
Launch date
2025-05-07
Launch site
AFETR
Launch vehicle
Mass (kg)
RCS (m²)

Purposes: comms

External: N2YO · Heavens-Above · Gunter

§ Orbital elements

Epoch: 2026-05-25T00:30:36.374112Z

Period
94.27 min
Inclination
43.0017°
Eccentricity
0.0001789
Mean motion
15.27602001 rev/d
Perigee alt
481.8 km
Apogee alt
484.2 km
Semi-major
6,861.1 km
B*
6.6774e-4
RAAN
7.0373°
Arg perigee
280.8488°
Mean anomaly
79.2163°
Rev number
5,942

§ Raw data

STARLINK-340561 63841U 25093F   26145.02125433  .00018170  00000+0  66774-3 0  99982 63841  43.0017   7.0373 0001789 280.8488  79.2163 15.27602001 59424

JSON: /api/v1/satellites/63841 · /tle

For live sub-satellite position, see the globe view (requires WebGL).

§ Visibility from observer

Set your observer location to see the next 7 days of passes ≥ 10°. The values pass through the URL so the page stays shareable.

No JS? Fill the form by hand. The geolocation button needs JavaScript.